Time,TemperatureF,DewpointF,PressureIn,WindDirection,WindDirectionDegrees,WindSpeedMPH,WindSpeedGustMPH,Humidity,HourlyPrecipIn,Conditions,Clouds,dailyrainin,SoftwareType,DateUTC
2013-02-12 00:00:00,36.1,34.5,30.14,SW,233,1.0,1.0,94,0.00,,,0.00,Wunderground v.1.15,2013-02-12 07:00:00,
2013-02-12 00:05:00,36.1,34.5,30.14,WNW,293,1.0,1.0,94,0.00,,,0.00,Wunderground v.1.15,2013-02-12 07:05:00,
2013-02-12 00:15:00,36.1,34.5,30.15,West,269,0.0,1.0,94,0.00,,,0.00,Wunderground v.1.15,2013-02-12 07:15:00,
2013-02-12 00:20:00,36.1,34.5,30.15,West,269,0.0,0.0,94,0.00,,,0.00,Wunderground v.1.15,2013-02-12 07:20:00,
2013-02-12 00:25:00,36.1,34.5,30.15,West,269,0.0,0.0,94,0.00,,,0.00,Wunderground v.1.15,2013-02-12 07:25:00,
2013-02-12 00:30:00,36.2,34.6,30.15,West,269,0.0,0.0,94,0.00,,,0.00,Wunderground v.1.15,2013-02-12 07:30:00,
2013-02-12 00:35:00,36.3,34.7,30.15,West,269,0.0,0.0,94,0.00,,,0.00,Wunderground v.1.15,2013-02-12 07:35:00,
2013-02-12 00:45:00,36.3,34.7,30.15,West,269,0.0,0.0,94,0.00,,,0.00,Wunderground v.1.15,2013-02-12 07:45:00,
2013-02-12 00:50:00,36.2,34.6,30.15,West,268,0.0,0.0,94,0.00,,,0.00,Wunderground v.1.15,2013-02-12 07:50:00,
2013-02-12 00:55:00,36.1,34.5,30.15,West,269,0.0,0.0,94,0.00,,,0.00,Wunderground v.1.15,2013-02-12 07:55:00,
2013-02-12 01:00:00,36.1,34.5,30.15,West,269,0.0,0.0,94,0.00,,,0.00,Wunderground v.1.15,2013-02-12 08:00:00,
2013-02-12 01:05:00,36.3,34.7,30.14,ESE,117,0.0,0.0,94,0.00,,,0.00,Wunderground v.1.15,2013-02-12 08:05:00,
2013-02-12 01:15:00,36.1,34.3,30.14,ESE,115,0.0,0.0,93,0.00,,,0.00,Wunderground v.1.15,2013-02-12 08:15:00,
2013-02-12 01:20:00,36.1,34.3,30.14,SE,134,1.0,1.0,93,0.00,,,0.00,Wunderground v.1.15,2013-02-12 08:20:00,
2013-02-12 01:30:00,35.9,34.1,30.14,SE,137,0.0,0.0,93,0.00,,,0.00,Wunderground v.1.15,2013-02-12 08:30:00,
2013-02-12 01:35:00,35.7,33.9,30.15,SE,137,0.0,0.0,93,0.00,,,0.00,Wunderground v.1.15,2013-02-12 08:35:00,
2013-02-12 01:40:00,35.6,34.0,30.14,SE,136,0.0,0.0,94,0.00,,,0.00,Wunderground v.1.15,2013-02-12 08:40:00,
2013-02-12 01:50:00,35.6,34.0,30.15,SE,136,0.0,0.0,94,0.00,,,0.00,Wunderground v.1.15,2013-02-12 08:50:00,
2013-02-12 01:55:00,35.4,33.8,30.15,SE,136,0.0,0.0,94,0.00,,,0.00,Wunderground v.1.15,2013-02-12 08:55:00,
2013-02-12 02:00:00,35.3,33.7,30.15,SE,136,0.0,0.0,94,0.00,,,0.00,Wunderground v.1.15,2013-02-12 09:00:00,
2013-02-12 02:05:00,35.6,34.3,30.16,SE,137,0.0,0.0,95,0.00,,,0.00,Wunderground v.1.15,2013-02-12 09:05:00,
2013-02-12 02:15:00,35.8,34.5,30.16,SW,234,0.0,0.0,95,0.00,,,0.00,Wunderground v.1.15,2013-02-12 09:15:00,
2013-02-12 02:20:00,35.8,34.5,30.16,SW,235,0.0,0.0,95,0.00,,,0.00,Wunderground v.1.15,2013-02-12 09:20:00,
2013-02-12 02:25:00,35.8,34.2,30.15,WSW,239,0.0,0.0,94,0.00,,,0.00,Wunderground v.1.15,2013-02-12 09:25:00,
2013-02-12 02:30:00,35.8,34.2,30.15,WSW,239,0.0,0.0,94,0.00,,,0.00,Wunderground v.1.15,2013-02-12 09:30:00,
2013-02-12 02:40:00,35.8,34.2,30.15,WSW,239,0.0,0.0,94,0.00,,,0.00,Wunderground v.1.15,2013-02-12 09:40:00,
2013-02-12 02:45:00,35.9,34.3,30.15,SSE,153,0.0,0.0,94,0.00,,,0.00,Wunderground v.1.15,2013-02-12 09:45:00,
2013-02-12 02:50:00,36.0,34.4,30.15,ESE,113,0.0,0.0,94,0.00,,,0.00,Wunderground v.1.15,2013-02-12 09:50:00,
2013-02-12 02:55:00,36.0,34.2,30.15,ESE,113,0.0,0.0,93,0.00,,,0.00,Wunderground v.1.15,2013-02-12 09:55:00,
2013-02-12 03:00:00,35.9,33.8,30.14,ESE,113,0.0,0.0,92,0.00,,,0.00,Wunderground v.1.15,2013-02-12 10:00:00,
2013-02-12 03:05:00,35.8,33.7,30.14,ESE,113,0.0,0.0,92,0.00,,,0.00,Wunderground v.1.15,2013-02-12 10:05:00,
2013-02-12 03:15:00,35.5,33.4,30.15,ESE,113,0.0,0.0,92,0.00,,,0.00,Wunderground v.1.15,2013-02-12 10:15:00,
2013-02-12 03:20:00,35.2,33.1,30.15,ESE,113,0.0,0.0,92,0.00,,,0.00,Wunderground v.1.15,2013-02-12 10:20:00,
2013-02-12 03:25:00,34.9,32.8,30.15,ESE,113,0.0,0.0,92,0.00,,,0.00,Wunderground v.1.15,2013-02-12 10:25:00,
2013-02-12 03:30:00,34.7,32.9,30.15,ESE,113,0.0,0.0,93,0.00,,,0.00,Wunderground v.1.15,2013-02-12 10:30:00,
2013-02-12 03:35:00,34.5,32.7,30.15,ESE,113,0.0,0.0,93,0.00,,,0.00,Wunderground v.1.15,2013-02-12 10:35:00,
2013-02-12 03:45:00,34.1,32.6,30.15,ESE,113,0.0,0.0,94,0.00,,,0.00,Wunderground v.1.15,2013-02-12 10:45:00,
2013-02-12 03:50:00,33.9,32.4,30.15,ESE,113,0.0,0.0,94,0.00,,,0.00,Wunderground v.1.15,2013-02-12 10:50:00,
2013-02-12 03:55:00,33.6,32.1,30.15,ESE,113,0.0,0.0,94,0.00,,,0.00,Wunderground v.1.15,2013-02-12 10:55:00,
2013-02-12 04:00:00,33.2,31.7,30.15,ESE,113,0.0,0.0,94,0.00,,,0.00,Wunderground v.1.15,2013-02-12 11:00:00,
2013-02-12 04:05:00,33.0,31.5,30.15,ESE,113,0.0,0.0,94,0.00,,,0.00,Wunderground v.1.15,2013-02-12 11:05:00,
2013-02-12 04:15:00,32.7,31.4,30.15,ESE,113,0.0,0.0,95,0.00,,,0.00,Wunderground v.1.15,2013-02-12 11:15:00,
2013-02-12 04:20:00,32.2,30.7,30.15,ESE,113,0.0,0.0,94,0.00,,,0.00,Wunderground v.1.15,2013-02-12 11:20:00,
2013-02-12 04:25:00,31.8,30.3,30.14,ESE,113,0.0,0.0,94,0.00,,,0.00,Wunderground v.1.15,2013-02-12 11:25:00,
2013-02-12 04:30:00,31.7,30.4,30.15,ESE,113,0.0,0.0,95,0.00,,,0.00,Wunderground v.1.15,2013-02-12 11:30:00,
2013-02-12 04:35:00,31.7,30.4,30.15,ESE,113,0.0,0.0,95,0.00,,,0.00,Wunderground v.1.15,2013-02-12 11:35:00,
2013-02-12 04:45:00,31.2,29.9,30.14,ESE,113,0.0,0.0,95,0.00,,,0.00,Wunderground v.1.15,2013-02-12 11:45:00,
2013-02-12 04:50:00,31.0,30.0,30.15,ESE,113,0.0,0.0,96,0.00,,,0.00,Wunderground v.1.15,2013-02-12 11:50:00,
2013-02-12 05:00:00,30.7,29.4,30.15,ESE,113,0.0,0.0,95,0.00,,,0.00,Wunderground v.1.15,2013-02-12 12:00:00,
2013-02-12 05:05:00,30.3,29.0,30.15,ESE,113,0.0,0.0,95,0.00,,,0.00,Wunderground v.1.15,2013-02-12 12:05:00,
2013-02-12 05:15:00,30.4,29.4,30.15,ESE,113,0.0,0.0,96,0.00,,,0.00,Wunderground v.1.15,2013-02-12 12:15:00,
2013-02-12 05:20:00,30.3,29.3,30.15,ESE,113,0.0,0.0,96,0.00,,,0.00,Wunderground v.1.15,2013-02-12 12:20:00,
2013-02-12 05:25:00,30.0,28.7,30.15,ESE,113,0.0,0.0,95,0.00,,,0.00,Wunderground v.1.15,2013-02-12 12:25:00,
2013-02-12 05:35:00,29.3,28.3,30.15,ESE,113,0.0,0.0,96,0.00,,,0.00,Wunderground v.1.15,2013-02-12 12:35:00,
2013-02-12 05:40:00,28.9,27.6,30.15,ESE,113,0.0,0.0,95,0.00,,,0.00,Wunderground v.1.15,2013-02-12 12:40:00,
2013-02-12 05:45:00,28.5,27.3,30.15,ESE,113,0.0,0.0,95,0.00,,,0.00,Wunderground v.1.15,2013-02-12 12:45:00,
2013-02-12 05:50:00,28.5,27.5,30.16,ESE,113,0.0,0.0,96,0.00,,,0.00,Wunderground v.1.15,2013-02-12 12:50:00,
2013-02-12 05:55:00,28.7,27.7,30.16,ESE,113,0.0,0.0,96,0.00,,,0.00,Wunderground v.1.15,2013-02-12 12:55:00,
2013-02-12 06:05:00,28.9,28.2,30.16,ESE,113,0.0,0.0,97,0.00,,,0.00,Wunderground v.1.15,2013-02-12 13:05:00,
2013-02-12 06:10:00,28.8,27.8,30.16,ESE,113,0.0,0.0,96,0.00,,,0.00,Wunderground v.1.15,2013-02-12 13:10:00,
2013-02-12 06:15:00,28.6,27.6,30.16,ESE,113,0.0,0.0,96,0.00,,,0.00,Wunderground v.1.15,2013-02-12 13:15:00,
2013-02-12 06:20:00,28.3,27.3,30.16,ESE,113,0.0,0.0,96,0.00,,,0.00,Wunderground v.1.15,2013-02-12 13:20:00,
2013-02-12 06:25:00,28.2,27.2,30.16,ESE,113,0.0,0.0,96,0.00,,,0.00,Wunderground v.1.15,2013-02-12 13:25:00,
2013-02-12 06:35:00,28.0,27.0,30.16,ESE,113,0.0,0.0,96,0.00,,,0.00,Wunderground v.1.15,2013-02-12 13:35:00,
2013-02-12 06:40:00,27.8,26.8,30.17,ESE,113,0.0,0.0,96,0.00,,,0.00,Wunderground v.1.15,2013-02-12 13:40:00,
2013-02-12 06:50:00,27.9,27.2,30.17,ESE,113,0.0,0.0,97,0.00,,,0.00,Wunderground v.1.15,2013-02-12 13:50:00,
2013-02-12 06:55:00,27.7,26.7,30.17,ESE,113,0.0,0.0,96,0.00,,,0.00,Wunderground v.1.15,2013-02-12 13:55:00,
2013-02-12 07:05:00,27.7,27.0,30.18,ESE,113,0.0,0.0,97,0.00,,,0.00,Wunderground v.1.15,2013-02-12 14:05:00,
2013-02-12 07:10:00,27.8,27.1,30.18,ESE,113,0.0,0.0,97,0.00,,,0.00,Wunderground v.1.15,2013-02-12 14:10:00,
2013-02-12 07:15:00,28.0,27.3,30.18,ESE,113,0.0,0.0,97,0.00,,,0.00,Wunderground v.1.15,2013-02-12 14:15:00,
2013-02-12 07:20:00,27.9,27.2,30.19,SSE,153,0.0,0.0,97,0.00,,,0.00,Wunderground v.1.15,2013-02-12 14:20:00,
2013-02-12 07:25:00,27.9,27.2,30.19,SSE,153,0.0,0.0,97,0.00,,,0.00,Wunderground v.1.15,2013-02-12 14:25:00,
2013-02-12 07:35:00,28.1,27.4,30.19,SSE,153,0.0,0.0,97,0.00,,,0.00,Wunderground v.1.15,2013-02-12 14:35:00,
2013-02-12 07:40:00,29.2,28.5,30.19,SSE,154,0.0,0.0,97,0.00,,,0.00,Wunderground v.1.15,2013-02-12 14:40:00,
2013-02-12 07:45:00,29.8,29.1,30.20,SSE,153,0.0,0.0,97,0.00,,,0.00,Wunderground v.1.15,2013-02-12 14:45:00,
2013-02-12 07:55:00,31.7,31.2,30.20,SSE,153,0.0,0.0,98,0.00,,,0.00,Wunderground v.1.15,2013-02-12 14:55:00,
2013-02-12 08:05:00,32.6,31.8,30.20,SSE,155,0.0,0.0,97,0.00,,,0.00,Wunderground v.1.15,2013-02-12 15:05:00,
2013-02-12 08:10:00,33.4,32.6,30.21,SSE,155,0.0,0.0,97,0.00,,,0.00,Wunderground v.1.15,2013-02-12 15:10:00,
2013-02-12 08:15:00,33.6,32.6,30.21,SSE,155,0.0,0.0,96,0.00,,,0.00,Wunderground v.1.15,2013-02-12 15:15:00,
2013-02-12 08:25:00,34.7,33.7,30.21,SSE,163,0.0,0.0,96,0.00,,,0.00,Wunderground v.1.15,2013-02-12 15:25:00,
2013-02-12 08:30:00,34.7,33.2,30.22,West,263,0.0,1.0,94,0.00,,,0.00,Wunderground v.1.15,2013-02-12 15:30:00,
2013-02-12 08:35:00,34.2,32.4,30.22,West,264,0.0,1.0,93,0.00,,,0.00,Wunderground v.1.15,2013-02-12 15:35:00,
2013-02-12 08:40:00,34.3,32.8,30.22,West,264,0.0,0.0,94,0.00,,,0.00,Wunderground v.1.15,2013-02-12 15:40:00,
2013-02-12 08:45:00,34.8,33.0,30.22,West,264,0.0,0.0,93,0.00,,,0.00,Wunderground v.1.15,2013-02-12 15:45:00,
2013-02-12 08:55:00,36.5,33.8,30.23,West,264,0.0,0.0,90,0.00,,,0.00,Wunderground v.1.15,2013-02-12 15:55:00,
2013-02-12 09:00:00,36.6,33.4,30.23,West,264,0.0,0.0,88,0.00,,,0.00,Wunderground v.1.15,2013-02-12 16:00:00,
2013-02-12 09:10:00,38.1,34.3,30.23,SSW,211,0.0,0.0,86,0.00,,,0.00,Wunderground v.1.15,2013-02-12 16:10:00,
2013-02-12 09:15:00,38.6,33.9,30.23,West,264,0.0,0.0,83,0.00,,,0.00,Wunderground v.1.15,2013-02-12 16:15:00,
2013-02-12 09:20:00,38.5,34.4,30.23,South,190,0.0,0.0,85,0.00,,,0.00,Wunderground v.1.15,2013-02-12 16:20:00,
2013-02-12 09:30:00,40.1,34.7,30.23,WSW,246,0.0,1.0,81,0.00,,,0.00,Wunderground v.1.15,2013-02-12 16:30:00,
2013-02-12 09:35:00,39.8,34.1,30.23,SSE,158,1.0,1.0,80,0.00,,,0.00,Wunderground v.1.15,2013-02-12 16:35:00,
2013-02-12 09:40:00,40.3,34.6,30.23,SSW,192,0.0,2.0,80,0.00,,,0.00,Wunderground v.1.15,2013-02-12 16:40:00,
2013-02-12 09:45:00,40.4,34.1,30.23,South,170,1.0,2.0,78,0.00,,,0.01,Wunderground v.1.15,2013-02-12 16:45:00,
2013-02-12 09:50:00,40.7,34.0,30.24,WSW,256,1.0,1.0,77,0.00,,,0.01,Wunderground v.1.15,2013-02-12 16:50:00,
2013-02-12 10:00:00,40.0,33.7,30.24,WNW,289,1.0,2.0,78,0.00,,,0.01,Wunderground v.1.15,2013-02-12 17:00:00,
2013-02-12 10:05:00,40.4,33.8,30.24,West,263,2.0,4.0,77,0.00,,,0.01,Wunderground v.1.15,2013-02-12 17:05:00,
2013-02-12 10:10:00,40.4,33.8,30.24,West,281,2.0,2.0,77,0.00,,,0.01,Wunderground v.1.15,2013-02-12 17:10:00,
2013-02-12 10:20:00,40.1,33.5,30.24,WSW,251,2.0,2.0,77,0.00,,,0.01,Wunderground v.1.15,2013-02-12 17:20:00,
2013-02-12 10:25:00,40.6,33.3,30.24,NW,305,1.0,2.0,75,0.00,,,0.01,Wunderground v.1.15,2013-02-12 17:25:00,
2013-02-12 10:30:00,41.1,33.8,30.24,NW,313,1.0,1.0,75,0.00,,,0.01,Wunderground v.1.15,2013-02-12 17:30:00,
2013-02-12 10:35:00,41.0,33.0,30.24,SE,131,1.0,2.0,73,0.00,,,0.01,Wunderground v.1.15,2013-02-12 17:35:00,
2013-02-12 10:40:00,41.2,32.9,30.25,East,82,1.0,1.0,72,0.00,,,0.01,Wunderground v.1.15,2013-02-12 17:40:00,
2013-02-12 10:50:00,42.4,34.0,30.24,WSW,246,2.0,2.0,72,0.00,,,0.01,Wunderground v.1.15,2013-02-12 17:50:00,
2013-02-12 11:00:00,43.3,33.8,30.24,WSW,255,2.0,3.0,69,0.00,,,0.01,Wunderground v.1.15,2013-02-12 18:00:00,
2013-02-12 11:05:00,43.1,34.0,30.25,SSW,197,2.0,3.0,70,0.00,,,0.01,Wunderground v.1.15,2013-02-12 18:05:00,
2013-02-12 11:10:00,42.8,33.7,30.24,SW,214,2.0,2.0,70,0.00,,,0.01,Wunderground v.1.15,2013-02-12 18:10:00,
2013-02-12 11:20:00,42.5,33.8,30.24,NW,310,2.0,4.0,71,0.00,,,0.01,Wunderground v.1.15,2013-02-12 18:20:00,
2013-02-12 11:25:00,43.5,34.4,30.24,SE,131,3.0,4.0,70,0.00,,,0.01,Wunderground v.1.15,2013-02-12 18:25:00,
2013-02-12 11:30:00,44.3,33.7,30.24,SSW,197,2.0,2.0,66,0.00,,,0.01,Wunderground v.1.15,2013-02-12 18:30:00,
2013-02-12 11:35:00,44.7,34.0,30.24,SSE,163,2.0,2.0,66,0.00,,,0.01,Wunderground v.1.15,2013-02-12 18:35:00,
2013-02-12 11:40:00,45.5,34.4,30.24,SSW,211,1.0,2.0,65,0.00,,,0.01,Wunderground v.1.15,2013-02-12 18:40:00,
2013-02-12 11:45:00,45.8,33.5,30.23,ESE,111,2.0,2.0,62,0.00,,,0.01,Wunderground v.1.15,2013-02-12 18:45:00,
2013-02-12 11:55:00,45.8,34.3,30.23,South,172,1.0,4.0,64,0.00,,,0.01,Wunderground v.1.15,2013-02-12 18:55:00,
2013-02-12 12:00:00,45.9,33.2,30.23,WSW,242,2.0,2.0,61,0.00,,,0.01,Wunderground v.1.15,2013-02-12 19:00:00,
2013-02-12 12:05:00,46.0,32.5,30.22,ESE,110,3.0,3.0,59,0.00,,,0.01,Wunderground v.1.15,2013-02-12 19:05:00,
2013-02-12 12:10:00,46.1,32.6,30.22,NW,313,2.0,2.0,59,0.00,,,0.01,Wunderground v.1.15,2013-02-12 19:10:00,
2013-02-12 12:15:00,46.3,32.7,30.22,SSW,203,2.0,4.0,59,0.00,,,0.01,Wunderground v.1.15,2013-02-12 19:15:00,
2013-02-12 12:25:00,45.8,31.4,30.21,WNW,294,3.0,4.0,57,0.00,,,0.01,Wunderground v.1.15,2013-02-12 19:25:00,
2013-02-12 12:30:00,45.7,33.0,30.21,West,281,3.0,3.0,61,0.00,,,0.01,Wunderground v.1.15,2013-02-12 19:30:00,
2013-02-12 12:35:00,45.9,31.5,30.21,South,188,3.0,3.0,57,0.00,,,0.01,Wunderground v.1.15,2013-02-12 19:35:00,
2013-02-12 12:40:00,46.5,31.6,30.21,WSW,243,2.0,2.0,56,0.00,,,0.01,Wunderground v.1.15,2013-02-12 19:40:00,
2013-02-12 12:45:00,47.1,30.8,30.20,SW,226,2.0,3.0,53,0.00,,,0.01,Wunderground v.1.15,2013-02-12 19:45:00,
2013-02-12 12:55:00,47.3,30.1,30.20,West,266,2.0,6.0,51,0.00,,,0.01,Wunderground v.1.15,2013-02-12 19:55:00,
2013-02-12 13:00:00,47.2,29.5,30.19,SE,136,3.0,3.0,50,0.00,,,0.01,Wunderground v.1.15,2013-02-12 20:00:00,
2013-02-12 13:05:00,47.4,29.7,30.19,SW,217,3.0,3.0,50,0.00,,,0.01,Wunderground v.1.15,2013-02-12 20:05:00,
2013-02-12 13:15:00,48.3,30.5,30.19,South,184,2.0,3.0,50,0.00,,,0.01,Wunderground v.1.15,2013-02-12 20:15:00,
2013-02-12 13:25:00,48.7,29.4,30.18,SSW,212,2.0,5.0,47,0.00,,,0.01,Wunderground v.1.15,2013-02-12 20:25:00,
2013-02-12 13:30:00,48.9,30.6,30.18,NW,316,2.0,2.0,49,0.00,,,0.01,Wunderground v.1.15,2013-02-12 20:30:00,
2013-02-12 13:35:00,48.5,30.7,30.18,WSW,251,3.0,4.0,50,0.00,,,0.01,Wunderground v.1.15,2013-02-12 20:35:00,
2013-02-12 13:40:00,48.2,29.9,30.18,WNW,291,3.0,3.0,49,0.00,,,0.01,Wunderground v.1.15,2013-02-12 20:40:00,
2013-02-12 13:45:00,48.5,30.2,30.17,South,186,3.0,4.0,49,0.00,,,0.01,Wunderground v.1.15,2013-02-12 20:45:00,
2013-02-12 13:55:00,49.2,30.3,30.17,WNW,298,2.0,3.0,48,0.00,,,0.01,Wunderground v.1.15,2013-02-12 20:55:00,
2013-02-12 14:00:00,49.2,30.3,30.17,SW,221,3.0,3.0,48,0.00,,,0.01,Wunderground v.1.15,2013-02-12 21:00:00,
2013-02-12 14:05:00,49.5,29.6,30.16,WSW,257,3.0,3.0,46,0.00,,,0.01,Wunderground v.1.15,2013-02-12 21:05:00,
2013-02-12 14:10:00,50.2,30.2,30.16,South,177,2.0,2.0,46,0.00,,,0.01,Wunderground v.1.15,2013-02-12 21:10:00,
2013-02-12 14:15:00,50.2,29.1,30.16,West,263,2.0,2.0,44,0.00,,,0.01,Wunderground v.1.15,2013-02-12 21:15:00,
2013-02-12 14:25:00,50.2,29.7,30.16,South,186,3.0,3.0,45,0.00,,,0.01,Wunderground v.1.15,2013-02-12 21:25:00,
2013-02-12 14:30:00,50.6,29.5,30.16,SW,217,2.0,5.0,44,0.00,,,0.01,Wunderground v.1.15,2013-02-12 21:30:00,
2013-02-12 14:35:00,50.3,29.2,30.15,West,281,3.0,5.0,44,0.00,,,0.01,Wunderground v.1.15,2013-02-12 21:35:00,
2013-02-12 14:40:00,49.9,28.8,30.15,South,174,2.0,2.0,44,0.00,,,0.01,Wunderground v.1.15,2013-02-12 21:40:00,
2013-02-12 14:45:00,50.7,29.0,30.15,WNW,282,1.0,3.0,43,0.00,,,0.01,Wunderground v.1.15,2013-02-12 21:45:00,
2013-02-12 14:55:00,50.3,29.2,30.15,West,281,2.0,5.0,44,0.00,,,0.01,Wunderground v.1.15,2013-02-12 21:55:00,
2013-02-12 15:00:00,50.8,30.2,30.14,SSW,194,2.0,2.0,45,0.00,,,0.01,Wunderground v.1.15,2013-02-12 22:00:00,
2013-02-12 15:05:00,51.6,29.2,30.14,SW,231,3.0,3.0,42,0.00,,,0.01,Wunderground v.1.15,2013-02-12 22:05:00,
2013-02-12 15:10:00,51.5,29.1,30.14,SSE,156,3.0,3.0,42,0.00,,,0.01,Wunderground v.1.15,2013-02-12 22:10:00,
2013-02-12 15:15:00,51.5,29.7,30.14,SSE,149,3.0,3.0,43,0.00,,,0.01,Wunderground v.1.15,2013-02-12 22:15:00,
2013-02-12 15:25:00,52.1,30.3,30.14,WNW,288,2.0,2.0,43,0.00,,,0.01,Wunderground v.1.15,2013-02-12 22:25:00,
2013-02-12 15:30:00,52.5,30.6,30.14,WNW,294,2.0,2.0,43,0.00,,,0.01,Wunderground v.1.15,2013-02-12 22:30:00,
2013-02-12 15:40:00,51.2,30.0,30.13,WSW,258,2.0,6.0,44,0.00,,,0.01,Wunderground v.1.15,2013-02-12 22:40:00,
2013-02-12 15:45:00,50.6,29.5,30.13,SSW,207,3.0,6.0,44,0.00,,,0.01,Wunderground v.1.15,2013-02-12 22:45:00,
2013-02-12 15:55:00,52.3,32.1,30.13,WSW,242,1.0,2.0,46,0.00,,,0.01,Wunderground v.1.15,2013-02-12 22:55:00,
2013-02-12 16:00:00,51.6,30.9,30.13,West,269,3.0,4.0,45,0.00,,,0.01,Wunderground v.1.15,2013-02-12 23:00:00,
2013-02-12 16:05:00,51.1,30.5,30.13,West,264,5.0,5.0,45,0.00,,,0.01,Wunderground v.1.15,2013-02-12 23:05:00,
2013-02-12 16:10:00,50.7,31.2,30.13,West,273,5.0,6.0,47,0.00,,,0.01,Wunderground v.1.15,2013-02-12 23:10:00,
2013-02-12 16:15:00,50.7,31.2,30.13,WNW,301,5.0,6.0,47,0.00,,,0.01,Wunderground v.1.15,2013-02-12 23:15:00,
2013-02-12 16:25:00,50.9,31.4,30.13,WNW,288,5.0,5.0,47,0.00,,,0.01,Wunderground v.1.15,2013-02-12 23:25:00,
2013-02-12 16:30:00,51.4,31.8,30.13,WSW,246,4.0,4.0,47,0.00,,,0.01,Wunderground v.1.15,2013-02-12 23:30:00,
2013-02-12 16:35:00,51.7,31.6,30.13,SSW,192,3.0,4.0,46,0.00,,,0.01,Wunderground v.1.15,2013-02-12 23:35:00,
2013-02-12 16:45:00,51.4,31.8,30.13,SW,225,4.0,7.0,47,0.00,,,0.01,Wunderground v.1.15,2013-02-12 23:45:00,
2013-02-12 16:50:00,51.3,31.2,30.13,SW,226,4.0,4.0,46,0.00,,,0.01,Wunderground v.1.15,2013-02-12 23:50:00,
2013-02-12 16:55:00,51.4,31.3,30.13,West,267,4.0,8.0,46,0.00,,,0.01,Wunderground v.1.15,2013-02-12 23:55:00,
2013-02-12 17:00:00,51.0,30.9,30.13,WNW,300,4.0,4.0,46,0.00,,,0.01,Wunderground v.1.15,2013-02-13 00:00:00,
2013-02-12 17:05:00,50.7,30.7,30.12,WNW,293,5.0,5.0,46,0.00,,,0.01,Wunderground v.1.15,2013-02-13 00:05:00,
2013-02-12 17:15:00,50.5,31.0,30.12,West,275,4.0,6.0,47,0.00,,,0.01,Wunderground v.1.15,2013-02-13 00:15:00,
2013-02-12 17:20:00,50.4,30.4,30.12,West,278,4.0,4.0,46,0.00,,,0.01,Wunderground v.1.15,2013-02-13 00:20:00,
2013-02-12 17:30:00,50.2,30.7,30.12,WSW,249,3.0,3.0,47,0.00,,,0.01,Wunderground v.1.15,2013-02-13 00:30:00,
2013-02-12 17:35:00,49.9,30.5,30.12,SSW,192,3.0,4.0,47,0.00,,,0.01,Wunderground v.1.15,2013-02-13 00:35:00,
2013-02-12 17:45:00,49.6,31.2,30.12,West,270,3.0,4.0,49,0.00,,,0.01,Wunderground v.1.15,2013-02-13 00:45:00,
2013-02-12 17:50:00,49.2,30.3,30.13,West,278,4.0,4.0,48,0.00,,,0.01,Wunderground v.1.15,2013-02-13 00:50:00,
2013-02-12 17:55:00,48.9,30.1,30.13,WSW,255,4.0,5.0,48,0.00,,,0.01,Wunderground v.1.15,2013-02-13 00:55:00,
2013-02-12 18:00:00,48.4,29.6,30.13,WSW,257,4.0,5.0,48,0.00,,,0.01,Wunderground v.1.15,2013-02-13 01:00:00,
2013-02-12 18:05:00,47.9,30.1,30.13,West,267,4.0,5.0,50,0.00,,,0.01,Wunderground v.1.15,2013-02-13 01:05:00,
2013-02-12 18:15:00,47.0,29.8,30.13,West,278,4.0,4.0,51,0.00,,,0.01,Wunderground v.1.15,2013-02-13 01:15:00,
2013-02-12 18:20:00,46.8,29.6,30.13,NW,304,4.0,5.0,51,0.00,,,0.01,Wunderground v.1.15,2013-02-13 01:20:00,
2013-02-12 18:25:00,46.6,29.9,30.13,WNW,296,4.0,5.0,52,0.00,,,0.01,Wunderground v.1.15,2013-02-13 01:25:00,
2013-02-12 18:30:00,46.3,29.6,30.13,WNW,285,4.0,6.0,52,0.00,,,0.01,Wunderground v.1.15,2013-02-13 01:30:00,
2013-02-12 18:40:00,46.2,28.6,30.13,WNW,288,5.0,5.0,50,0.00,,,0.01,Wunderground v.1.15,2013-02-13 01:40:00,
2013-02-12 18:45:00,46.1,28.5,30.13,WNW,282,5.0,5.0,50,0.00,,,0.01,Wunderground v.1.15,2013-02-13 01:45:00,
2013-02-12 18:50:00,46.0,28.9,30.13,WNW,290,5.0,5.0,51,0.00,,,0.01,Wunderground v.1.15,2013-02-13 01:50:00,
2013-02-12 18:55:00,45.9,28.3,30.13,WNW,295,4.0,7.0,50,0.00,,,0.01,Wunderground v.1.15,2013-02-13 01:55:00,
2013-02-12 19:00:00,45.8,28.2,30.14,West,261,5.0,5.0,50,0.00,,,0.01,Wunderground v.1.15,2013-02-13 02:00:00,
2013-02-12 19:10:00,45.3,28.2,30.13,West,271,3.0,4.0,51,0.00,,,0.01,Wunderground v.1.15,2013-02-13 02:10:00,
2013-02-12 19:15:00,45.1,28.0,30.14,WNW,301,3.0,4.0,51,0.00,,,0.01,Wunderground v.1.15,2013-02-13 02:15:00,
2013-02-12 19:20:00,44.9,27.8,30.14,West,266,2.0,2.0,51,0.00,,,0.01,Wunderground v.1.15,2013-02-13 02:20:00,
2013-02-12 19:25:00,44.5,28.0,30.14,West,266,1.0,2.0,52,0.00,,,0.01,Wunderground v.1.15,2013-02-13 02:25:00,
2013-02-12 19:35:00,43.4,28.3,30.13,SE,143,0.0,0.0,55,0.00,,,0.01,Wunderground v.1.15,2013-02-13 02:35:00,
2013-02-12 19:40:00,42.9,28.3,30.13,SSE,167,0.0,0.0,56,0.00,,,0.01,Wunderground v.1.15,2013-02-13 02:40:00,
2013-02-12 19:50:00,42.2,28.9,30.13,SSW,201,0.0,0.0,59,0.00,,,0.01,Wunderground v.1.15,2013-02-13 02:50:00,
2013-02-12 19:55:00,41.6,29.1,30.14,SSW,201,0.0,0.0,61,0.00,,,0.01,Wunderground v.1.15,2013-02-13 02:55:00,
2013-02-12 20:00:00,41.0,29.4,30.14,SSW,200,0.0,0.0,63,0.00,,,0.01,Wunderground v.1.15,2013-02-13 03:00:00,
2013-02-12 20:10:00,40.1,30.4,30.14,SSW,200,0.0,0.0,68,0.00,,,0.01,Wunderground v.1.15,2013-02-13 03:10:00,
2013-02-12 20:15:00,39.9,30.2,30.14,ESE,102,0.0,1.0,68,0.00,,,0.01,Wunderground v.1.15,2013-02-13 03:15:00,
2013-02-12 20:25:00,39.7,30.4,30.14,East,89,0.0,1.0,69,0.00,,,0.01,Wunderground v.1.15,2013-02-13 03:25:00,
2013-02-12 20:30:00,39.4,30.4,30.14,ENE,72,0.0,0.0,70,0.00,,,0.01,Wunderground v.1.15,2013-02-13 03:30:00,
2013-02-12 20:35:00,38.7,30.4,30.14,NE,34,0.0,1.0,72,0.00,,,0.01,Wunderground v.1.15,2013-02-13 03:35:00,
2013-02-12 20:40:00,38.7,31.1,30.14,NE,41,1.0,1.0,74,0.00,,,0.01,Wunderground v.1.15,2013-02-13 03:40:00,
2013-02-12 20:50:00,38.9,31.0,30.14,NE,56,0.0,0.0,73,0.00,,,0.01,Wunderground v.1.15,2013-02-13 03:50:00,
2013-02-12 20:55:00,39.0,31.1,30.14,ENE,78,0.0,0.0,73,0.00,,,0.01,Wunderground v.1.15,2013-02-13 03:55:00,
2013-02-12 21:00:00,39.2,31.3,30.15,ESE,105,0.0,0.0,73,0.00,,,0.01,Wunderground v.1.15,2013-02-13 04:00:00,
2013-02-12 21:05:00,39.0,31.1,30.15,ESE,106,0.0,0.0,73,0.00,,,0.01,Wunderground v.1.15,2013-02-13 04:05:00,
2013-02-12 21:15:00,38.5,30.6,30.14,ESE,122,0.0,0.0,73,0.00,,,0.01,Wunderground v.1.15,2013-02-13 04:15:00,
2013-02-12 21:20:00,38.1,30.9,30.15,ESE,122,0.0,0.0,75,0.00,,,0.01,Wunderground v.1.15,2013-02-13 04:20:00,
2013-02-12 21:25:00,37.5,30.9,30.15,ESE,122,0.0,0.0,77,0.00,,,0.01,Wunderground v.1.15,2013-02-13 04:25:00,
2013-02-12 21:30:00,37.3,30.4,30.15,NE,48,0.0,0.0,76,0.00,,,0.01,Wunderground v.1.15,2013-02-13 04:30:00,
2013-02-12 21:35:00,37.2,30.3,30.15,NE,48,0.0,0.0,76,0.00,,,0.01,Wunderground v.1.15,2013-02-13 04:35:00,
2013-02-12 21:45:00,37.3,30.4,30.15,NE,48,0.0,0.0,76,0.00,,,0.01,Wunderground v.1.15,2013-02-13 04:45:00,
2013-02-12 21:50:00,37.4,30.5,30.15,NE,49,0.0,0.0,76,0.00,,,0.01,Wunderground v.1.15,2013-02-13 04:50:00,
2013-02-12 21:55:00,37.0,30.5,30.15,NE,49,0.0,0.0,77,0.00,,,0.01,Wunderground v.1.15,2013-02-13 04:55:00,
2013-02-12 22:00:00,36.3,30.1,30.15,NE,49,0.0,0.0,78,0.00,,,0.01,Wunderground v.1.15,2013-02-13 05:00:00,
2013-02-12 22:05:00,35.8,29.9,30.15,NE,48,0.0,0.0,79,0.00,,,0.01,Wunderground v.1.15,2013-02-13 05:05:00,
2013-02-12 22:15:00,35.1,30.2,30.15,NE,49,0.0,0.0,82,0.00,,,0.01,Wunderground v.1.15,2013-02-13 05:15:00,
2013-02-12 22:20:00,34.9,30.3,30.15,NE,50,0.0,0.0,83,0.00,,,0.01,Wunderground v.1.15,2013-02-13 05:20:00,
2013-02-12 22:25:00,34.5,29.9,30.15,NE,49,0.0,0.0,83,0.00,,,0.01,Wunderground v.1.15,2013-02-13 05:25:00,
2013-02-12 22:30:00,34.0,29.7,30.15,NE,50,0.0,0.0,84,0.00,,,0.01,Wunderground v.1.15,2013-02-13 05:30:00,
2013-02-12 22:35:00,33.5,29.5,30.15,NE,50,0.0,0.0,85,0.00,,,0.01,Wunderground v.1.15,2013-02-13 05:35:00,
2013-02-12 22:45:00,33.4,29.9,30.15,NE,50,0.0,0.0,87,0.00,,,0.01,Wunderground v.1.15,2013-02-13 05:45:00,
2013-02-12 22:50:00,33.3,29.6,30.15,NE,49,0.0,0.0,86,0.00,,,0.01,Wunderground v.1.15,2013-02-13 05:50:00,
2013-02-12 22:55:00,33.1,29.7,30.15,NE,50,0.0,0.0,87,0.00,,,0.01,Wunderground v.1.15,2013-02-13 05:55:00,
2013-02-12 23:00:00,32.8,29.6,30.15,NE,50,0.0,0.0,88,0.00,,,0.01,Wunderground v.1.15,2013-02-13 06:00:00,
2013-02-12 23:05:00,32.5,29.3,30.15,NE,48,0.0,0.0,88,0.00,,,0.01,Wunderground v.1.15,2013-02-13 06:05:00,
2013-02-12 23:15:00,32.3,29.4,30.15,NE,49,0.0,0.0,89,0.00,,,0.01,Wunderground v.1.15,2013-02-13 06:15:00,
2013-02-12 23:20:00,32.5,29.9,30.15,NE,50,0.0,0.0,90,0.00,,,0.01,Wunderground v.1.15,2013-02-13 06:20:00,
2013-02-12 23:30:00,32.3,29.4,30.15,West,267,0.0,0.0,89,0.00,,,0.01,Wunderground v.1.15,2013-02-13 06:30:00,
2013-02-12 23:40:00,32.0,29.1,30.15,NW,316,0.0,0.0,89,0.00,,,0.01,Wunderground v.1.15,2013-02-13 06:40:00,
2013-02-12 23:45:00,31.6,28.7,30.15,WSW,246,0.0,0.0,89,0.00,,,0.01,Wunderground v.1.15,2013-02-13 06:45:00,
2013-02-12 23:50:00,31.5,28.9,30.14,WSW,248,0.0,0.0,90,0.00,,,0.01,Wunderground v.1.15,2013-02-13 06:50:00,
2013-02-12 23:55:00,31.3,28.7,30.15,WSW,248,0.0,0.0,90,0.00,,,0.01,Wunderground v.1.15,2013-02-13 06:55:00,